Location: Brunsen
(51.8651°N, 9.8610°E)
Time: 13:40:48
(UTC+00:00)

Lacrosse 5 rocket - Pass Details

Date: 23 May 2024
Orbit: 446 x 572 km, 57.0° (Epoch: 12 June)

Event Time Altitude Azimuth Distance (km) Brightness Sun altitude
Rises 01:19:29 0° 298° (WNW) 2,737 4.9 -12.7°
Reaches altitude 10° 01:21:51 10° 291° (WNW) 1,820 3.9 -12.6°
Maximum altitude 01:25:42 39° 222° (SW) 805 1.7 -12.3°
Drops below altitude 10° 01:29:23 10° 153° (SSE) 1,739 3.6 -12.0°
Sets 01:31:36 0° 145° (SE) 2,597 4.5 -11.8°
